Time,TemperatureF,DewpointF,PressureIn,WindDirection,WindDirectionDegrees,WindSpeedMPH,WindSpeedGustMPH,Humidity,HourlyPrecipIn,Conditions,Clouds,dailyrainin,SoftwareType,DateUTC
2013-07-17 00:04:00,75.7,21.5,0.00,NW,323,0.0,0.0,13,0.00,,---,0.00,VWS V14.01,2013-07-17 07:04:00,
2013-07-17 00:09:00,74.8,20.7,0.00,WSW,255,0.0,0.0,13,0.00,,---,0.00,VWS V14.01,2013-07-17 07:09:00,
2013-07-17 00:14:00,74.5,20.5,0.00,West,263,0.0,0.0,13,0.00,,---,0.00,VWS V14.01,2013-07-17 07:14:00,
2013-07-17 00:19:00,75.0,20.9,0.00,NNE,20,0.0,0.0,13,0.00,,---,0.00,VWS V14.01,2013-07-17 07:19:00,
2013-07-17 00:24:00,73.9,20.0,0.00,NNE,20,0.0,0.0,13,0.00,,---,0.00,VWS V14.01,2013-07-17 07:24:00,
2013-07-17 00:29:00,73.2,21.2,0.00,ENE,74,0.0,0.0,14,0.00,,---,0.00,VWS V14.01,2013-07-17 07:29:00,
2013-07-17 00:34:00,73.0,21.1,0.00,SE,127,0.0,0.0,14,0.00,,---,0.00,VWS V14.01,2013-07-17 07:34:00,
2013-07-17 00:39:00,72.1,20.4,0.00,SE,141,0.0,0.0,14,0.00,,---,0.00,VWS V14.01,2013-07-17 07:39:00,
2013-07-17 00:44:00,72.0,20.2,0.00,ENE,72,0.0,0.0,14,0.00,,---,0.00,VWS V14.01,2013-07-17 07:44:00,
2013-07-17 00:49:00,72.5,20.6,0.00,NE,48,0.0,0.0,14,0.00,,---,0.00,VWS V14.01,2013-07-17 07:49:00,
2013-07-17 00:54:00,73.4,19.6,0.00,NE,53,0.0,0.0,13,0.00,,---,0.00,VWS V14.01,2013-07-17 07:54:00,
2013-07-17 00:59:00,74.1,20.2,0.00,NE,39,0.0,0.0,13,0.00,,---,0.00,VWS V14.01,2013-07-17 07:59:00,
2013-07-17 01:04:00,74.7,20.6,0.00,NE,39,0.0,0.0,13,0.00,,---,0.00,VWS V14.01,2013-07-17 08:04:00,
2013-07-17 01:09:00,75.2,21.0,0.00,ENE,69,0.0,0.0,13,0.00,,---,0.00,VWS V14.01,2013-07-17 08:09:00,
2013-07-17 01:14:00,75.6,21.3,0.00,North,353,0.0,0.0,13,0.00,,---,0.00,VWS V14.01,2013-07-17 08:14:00,
2013-07-17 01:19:00,76.3,21.9,0.00,North,357,0.0,0.0,13,0.00,,---,0.00,VWS V14.01,2013-07-17 08:19:00,
2013-07-17 01:24:00,76.6,22.1,0.00,NE,36,0.0,0.0,13,0.00,,---,0.00,VWS V14.01,2013-07-17 08:24:00,
2013-07-17 01:29:00,77.0,22.4,0.00,North,0,0.0,0.0,13,0.00,,---,0.00,VWS V14.01,2013-07-17 08:29:00,
2013-07-17 01:34:00,76.3,21.9,0.00,NNW,345,0.0,0.0,13,0.00,,---,0.00,VWS V14.01,2013-07-17 08:34:00,
2013-07-17 01:39:00,76.1,21.7,0.00,NNW,331,0.0,0.0,13,0.00,,---,0.00,VWS V14.01,2013-07-17 08:39:00,
2013-07-17 01:44:00,75.9,21.6,0.00,West,266,0.0,0.0,13,0.00,,---,0.00,VWS V14.01,2013-07-17 08:44:00,
2013-07-17 01:49:00,75.6,21.3,0.00,South,190,0.0,0.0,13,0.00,,---,0.00,VWS V14.01,2013-07-17 08:49:00,
2013-07-17 01:54:00,75.0,20.9,0.00,South,172,0.0,0.0,13,0.00,,---,0.00,VWS V14.01,2013-07-17 08:54:00,
2013-07-17 01:59:00,75.0,20.9,0.00,NNW,334,0.0,0.0,13,0.00,,---,0.00,VWS V14.01,2013-07-17 08:59:00,
2013-07-17 02:04:00,75.0,20.9,0.00,NNW,334,0.0,0.0,13,0.00,,---,0.00,VWS V14.01,2013-07-17 09:04:00,
2013-07-17 02:09:00,74.5,20.5,0.00,SW,230,0.0,0.0,13,0.00,,---,0.00,VWS V14.01,2013-07-17 09:09:00,
2013-07-17 02:14:00,74.1,20.2,0.00,SW,236,0.0,0.0,13,0.00,,---,0.00,VWS V14.01,2013-07-17 09:14:00,
2013-07-17 02:19:00,73.8,19.9,0.00,SW,236,0.0,0.0,13,0.00,,---,0.00,VWS V14.01,2013-07-17 09:19:00,
2013-07-17 02:24:00,73.8,19.9,0.00,ESE,103,0.0,0.0,13,0.00,,---,0.00,VWS V14.01,2013-07-17 09:24:00,
2013-07-17 02:29:00,73.6,19.8,0.00,West,265,0.0,0.0,13,0.00,,---,0.00,VWS V14.01,2013-07-17 09:29:00,
2013-07-17 02:34:00,73.2,21.2,0.00,West,265,0.0,0.0,14,0.00,,---,0.00,VWS V14.01,2013-07-17 09:34:00,
2013-07-17 02:39:00,73.4,19.6,0.00,South,182,0.0,0.0,13,0.00,,---,0.00,VWS V14.01,2013-07-17 09:39:00,
2013-07-17 02:44:00,73.8,19.9,0.00,SSE,159,0.0,0.0,13,0.00,,---,0.00,VWS V14.01,2013-07-17 09:44:00,
2013-07-17 02:49:00,75.4,21.2,0.00,ESE,111,0.0,0.0,13,0.00,,---,0.00,VWS V14.01,2013-07-17 09:49:00,
2013-07-17 02:54:00,77.9,23.1,0.00,ESE,112,0.0,0.0,13,0.00,,---,0.00,VWS V14.01,2013-07-17 09:54:00,
2013-07-17 02:59:00,78.8,22.0,0.00,ESE,122,0.0,0.0,12,0.00,,---,0.00,VWS V14.01,2013-07-17 09:59:00,
2013-07-17 03:04:00,77.7,23.0,0.00,NNE,28,0.0,0.0,13,0.00,,---,0.00,VWS V14.01,2013-07-17 10:04:00,
2013-07-17 03:09:00,76.3,21.9,0.00,ESE,123,0.0,0.0,13,0.00,,---,0.00,VWS V14.01,2013-07-17 10:09:00,
2013-07-17 03:14:00,75.9,21.6,0.00,SE,132,0.0,0.0,13,0.00,,---,0.00,VWS V14.01,2013-07-17 10:14:00,
2013-07-17 03:19:00,75.6,21.3,0.00,NE,49,0.0,0.0,13,0.00,,---,0.00,VWS V14.01,2013-07-17 10:19:00,
2013-07-17 03:24:00,75.2,21.0,0.00,NE,40,0.0,0.0,13,0.00,,---,0.00,VWS V14.01,2013-07-17 10:24:00,
2013-07-17 03:29:00,74.7,20.6,0.00,East,81,0.0,0.0,13,0.00,,---,0.00,VWS V14.01,2013-07-17 10:29:00,
2013-07-17 03:34:00,74.7,20.6,0.00,NE,55,0.0,0.0,13,0.00,,---,0.00,VWS V14.01,2013-07-17 10:34:00,
2013-07-17 03:39:00,74.7,20.6,0.00,NNW,343,0.0,0.0,13,0.00,,---,0.00,VWS V14.01,2013-07-17 10:39:00,
2013-07-17 03:44:00,74.3,20.3,0.00,North,353,0.0,0.0,13,0.00,,---,0.00,VWS V14.01,2013-07-17 10:44:00,
2013-07-17 03:49:00,74.1,20.2,0.00,North,357,0.0,0.0,13,0.00,,---,0.00,VWS V14.01,2013-07-17 10:49:00,
2013-07-17 03:54:00,73.8,19.9,0.00,NNW,344,0.0,0.0,13,0.00,,---,0.00,VWS V14.01,2013-07-17 10:54:00,
2013-07-17 03:59:00,73.2,21.2,0.00,WNW,285,0.0,0.0,14,0.00,,---,0.00,VWS V14.01,2013-07-17 10:59:00,
2013-07-17 04:04:00,72.3,20.5,0.00,West,280,0.0,0.0,14,0.00,,---,0.00,VWS V14.01,2013-07-17 11:04:00,
2013-07-17 04:09:00,71.8,20.1,0.00,NNW,340,0.0,0.0,14,0.00,,---,0.00,VWS V14.01,2013-07-17 11:09:00,
2013-07-17 04:14:00,72.0,20.2,0.00,North,0,0.0,0.0,14,0.00,,---,0.00,VWS V14.01,2013-07-17 11:14:00,
2013-07-17 04:19:00,71.8,20.1,0.00,North,353,0.0,0.0,14,0.04,,---,0.04,VWS V14.01,2013-07-17 11:19:00,
2013-07-17 04:24:00,71.4,24.4,0.00,North,353,0.0,0.0,17,0.04,,---,0.04,VWS V14.01,2013-07-17 11:24:00,
2013-07-17 04:29:00,70.7,23.8,0.00,SE,130,0.0,0.0,17,0.04,,---,0.04,VWS V14.01,2013-07-17 11:29:00,
2013-07-17 04:34:00,70.0,25.9,0.00,ENE,59,0.0,0.0,19,0.04,,---,0.04,VWS V14.01,2013-07-17 11:34:00,
2013-07-17 04:39:00,69.6,26.8,0.00,NE,38,0.0,0.0,20,0.04,,---,0.04,VWS V14.01,2013-07-17 11:39:00,
2013-07-17 04:44:00,69.1,28.7,0.00,NE,38,0.0,0.0,22,0.04,,---,0.04,VWS V14.01,2013-07-17 11:44:00,
2013-07-17 04:49:00,68.9,28.5,0.00,North,353,0.0,0.0,22,0.04,,---,0.04,VWS V14.01,2013-07-17 11:49:00,
2013-07-17 04:54:00,68.7,28.4,0.00,NE,34,0.0,0.0,22,0.04,,---,0.04,VWS V14.01,2013-07-17 11:54:00,
2013-07-17 04:59:00,68.5,29.3,0.00,North,0,0.0,0.0,23,0.04,,---,0.04,VWS V14.01,2013-07-17 11:59:00,
2013-07-17 05:04:00,68.4,29.1,0.00,NNW,342,0.0,0.0,23,0.04,,---,0.04,VWS V14.01,2013-07-17 12:04:00,
2013-07-17 05:09:00,68.2,29.0,0.00,ENE,57,0.0,0.0,23,0.04,,---,0.04,VWS V14.01,2013-07-17 12:09:00,
2013-07-17 05:14:00,68.0,28.9,0.00,ENE,58,0.0,0.0,23,0.04,,---,0.04,VWS V14.01,2013-07-17 12:14:00,
2013-07-17 05:19:00,68.0,28.9,0.00,ENE,67,0.0,0.0,23,0.00,,---,0.04,VWS V14.01,2013-07-17 12:19:00,
2013-07-17 05:24:00,67.8,29.7,0.00,ENE,67,0.0,0.0,24,0.00,,---,0.04,VWS V14.01,2013-07-17 12:24:00,
2013-07-17 05:29:00,67.3,30.3,0.00,South,172,0.0,0.0,25,0.00,,---,0.04,VWS V14.01,2013-07-17 12:29:00,
2013-07-17 05:34:00,66.7,29.8,0.00,SSW,192,0.0,0.0,25,0.00,,---,0.04,VWS V14.01,2013-07-17 12:34:00,
2013-07-17 05:39:00,66.9,30.0,0.00,NNW,329,0.0,0.0,25,0.00,,---,0.04,VWS V14.01,2013-07-17 12:39:00,
2013-07-17 05:44:00,67.3,30.3,0.00,SW,224,0.0,0.0,25,0.00,,---,0.04,VWS V14.01,2013-07-17 12:44:00,
2013-07-17 05:49:00,67.8,29.7,0.00,NW,326,0.0,0.0,24,0.00,,---,0.04,VWS V14.01,2013-07-17 12:49:00,
2013-07-17 05:54:00,68.2,29.0,0.00,WSW,257,0.0,0.0,23,0.00,,---,0.04,VWS V14.01,2013-07-17 12:54:00,
2013-07-17 05:59:00,68.2,29.0,0.00,WNW,295,0.0,0.0,23,0.00,,---,0.04,VWS V14.01,2013-07-17 12:59:00,
2013-07-17 06:04:00,68.7,29.5,0.00,West,266,0.0,0.0,23,0.00,,---,0.04,VWS V14.01,2013-07-17 13:04:00,
2013-07-17 06:09:00,69.3,28.8,0.00,WNW,298,0.0,0.0,22,0.00,,---,0.04,VWS V14.01,2013-07-17 13:09:00,
2013-07-17 06:14:00,70.0,29.4,0.00,NNW,344,0.0,0.0,22,0.00,,---,0.04,VWS V14.01,2013-07-17 13:14:00,
2013-07-17 06:19:00,70.0,29.4,0.00,North,353,0.0,0.0,22,0.00,,---,0.04,VWS V14.01,2013-07-17 13:19:00,
2013-07-17 06:24:00,70.2,29.6,0.00,ENE,68,0.0,0.0,22,0.00,,---,0.04,VWS V14.01,2013-07-17 13:24:00,
2013-07-17 06:29:00,69.4,29.0,0.00,ENE,77,0.0,0.0,22,0.00,,---,0.04,VWS V14.01,2013-07-17 13:29:00,
2013-07-17 06:34:00,68.5,29.3,0.00,WSW,254,0.0,0.0,23,0.00,,---,0.04,VWS V14.01,2013-07-17 13:34:00,
2013-07-17 06:39:00,68.2,29.0,0.00,WSW,255,0.0,0.0,23,0.00,,---,0.04,VWS V14.01,2013-07-17 13:39:00,
2013-07-17 06:44:00,68.4,30.2,0.00,SW,236,0.0,0.0,24,0.00,,---,0.04,VWS V14.01,2013-07-17 13:44:00,
2013-07-17 06:49:00,68.9,30.6,0.00,SW,236,0.0,0.0,24,0.00,,---,0.04,VWS V14.01,2013-07-17 13:49:00,
2013-07-17 06:54:00,69.6,30.2,0.00,SW,236,0.0,0.0,23,0.00,,---,0.04,VWS V14.01,2013-07-17 13:54:00,
2013-07-17 06:59:00,70.2,30.7,0.00,SW,236,0.0,0.0,23,0.00,,---,0.04,VWS V14.01,2013-07-17 13:59:00,
2013-07-17 07:04:00,70.5,29.9,0.00,WSW,251,0.0,0.0,22,0.00,,---,0.04,VWS V14.01,2013-07-17 14:04:00,
2013-07-17 07:09:00,71.1,30.3,0.00,NE,49,0.0,0.0,22,0.00,,---,0.04,VWS V14.01,2013-07-17 14:09:00,
2013-07-17 07:14:00,71.6,29.6,0.00,SSE,157,0.0,0.0,21,0.00,,---,0.04,VWS V14.01,2013-07-17 14:14:00,
2013-07-17 07:19:00,72.0,27.5,0.00,SSE,150,0.0,0.0,19,0.00,,---,0.04,VWS V14.01,2013-07-17 14:19:00,
2013-07-17 07:24:00,72.5,27.9,0.00,NE,45,0.0,0.0,19,0.00,,---,0.04,VWS V14.01,2013-07-17 14:24:00,
2013-07-17 07:29:00,73.4,24.5,0.00,East,91,0.0,0.0,16,0.00,,---,0.04,VWS V14.01,2013-07-17 14:29:00,
2013-07-17 07:34:00,73.9,25.0,0.00,North,7,0.0,0.0,16,0.00,,---,0.04,VWS V14.01,2013-07-17 14:34:00,
2013-07-17 07:39:00,74.1,25.1,0.00,North,7,0.0,0.0,16,0.00,,---,0.04,VWS V14.01,2013-07-17 14:39:00,
2013-07-17 07:44:00,74.7,25.5,0.00,ENE,59,0.0,0.0,16,0.00,,---,0.04,VWS V14.01,2013-07-17 14:44:00,
2013-07-17 07:49:00,75.2,24.4,0.00,ESE,112,0.0,0.0,15,0.00,,---,0.04,VWS V14.01,2013-07-17 14:49:00,
2013-07-17 07:54:00,75.7,21.5,0.00,ENE,64,0.0,0.0,13,0.00,,---,0.04,VWS V14.01,2013-07-17 14:54:00,
2013-07-17 07:59:00,76.3,21.9,0.00,ENE,64,0.0,0.0,13,0.00,,---,0.04,VWS V14.01,2013-07-17 14:59:00,
2013-07-17 08:04:00,76.6,22.1,0.00,ENE,76,0.0,0.0,13,0.00,,---,0.04,VWS V14.01,2013-07-17 15:04:00,
2013-07-17 08:09:00,77.5,22.9,0.00,NE,41,0.0,0.0,13,0.00,,---,0.04,VWS V14.01,2013-07-17 15:09:00,
2013-07-17 08:14:00,78.3,23.4,0.00,NE,41,0.0,0.0,13,0.00,,---,0.04,VWS V14.01,2013-07-17 15:14:00,
2013-07-17 08:19:00,78.6,23.7,0.00,NE,41,0.0,0.0,13,0.00,,---,0.04,VWS V14.01,2013-07-17 15:19:00,
2013-07-17 08:24:00,79.0,22.1,0.00,SSE,167,0.0,0.0,12,0.00,,---,0.04,VWS V14.01,2013-07-17 15:24:00,
2013-07-17 08:29:00,79.3,22.4,0.00,NNE,29,0.0,0.0,12,0.00,,---,0.04,VWS V14.01,2013-07-17 15:29:00,
2013-07-17 08:34:00,79.0,22.1,0.00,East,92,0.0,0.0,12,0.00,,---,0.04,VWS V14.01,2013-07-17 15:34:00,
2013-07-17 08:39:00,78.6,23.7,0.00,NE,44,0.0,0.0,13,0.00,,---,0.04,VWS V14.01,2013-07-17 15:39:00,
2013-07-17 08:44:00,79.0,22.1,0.00,NE,34,0.0,0.0,12,0.00,,---,0.04,VWS V14.01,2013-07-17 15:44:00,
2013-07-17 08:49:00,79.0,22.1,0.00,NE,53,0.0,0.0,12,0.00,,---,0.04,VWS V14.01,2013-07-17 15:49:00,
2013-07-17 08:54:00,79.0,22.1,0.00,NNE,30,0.0,0.0,12,0.00,,---,0.04,VWS V14.01,2013-07-17 15:54:00,
2013-07-17 08:59:00,79.2,22.2,0.00,NNW,342,0.0,0.0,12,0.00,,---,0.04,VWS V14.01,2013-07-17 15:59:00,
2013-07-17 09:04:00,79.9,22.8,0.00,NNW,346,0.0,0.0,12,0.00,,---,0.04,VWS V14.01,2013-07-17 16:04:00,
2013-07-17 09:09:00,79.3,22.4,0.00,East,79,0.0,0.0,12,0.00,,---,0.04,VWS V14.01,2013-07-17 16:09:00,
2013-07-17 09:14:00,79.0,22.1,0.00,North,353,0.0,0.0,12,0.00,,---,0.04,VWS V14.01,2013-07-17 16:14:00,
2013-07-17 09:19:00,78.6,23.7,0.00,South,171,0.0,0.0,13,0.00,,---,0.04,VWS V14.01,2013-07-17 16:19:00,
2013-07-17 09:24:00,78.1,23.3,0.00,South,174,0.0,0.0,13,0.00,,---,0.04,VWS V14.01,2013-07-17 16:24:00,
2013-07-17 09:29:00,77.2,22.6,0.00,SSW,194,0.0,0.0,13,0.00,,---,0.04,VWS V14.01,2013-07-17 16:29:00,
2013-07-17 09:34:00,76.6,22.1,0.00,South,182,0.0,0.0,13,0.00,,---,0.04,VWS V14.01,2013-07-17 16:34:00,
2013-07-17 09:39:00,76.1,21.7,0.00,SSE,159,0.0,0.0,13,0.00,,---,0.04,VWS V14.01,2013-07-17 16:39:00,
2013-07-17 09:44:00,75.7,21.5,0.00,South,189,0.0,0.0,13,0.00,,---,0.04,VWS V14.01,2013-07-17 16:44:00,
2013-07-17 09:49:00,75.9,21.6,0.00,SSE,153,0.0,0.0,13,0.00,,---,0.04,VWS V14.01,2013-07-17 16:49:00,
2013-07-17 09:54:00,76.1,21.7,0.00,SE,144,0.0,0.0,13,0.00,,---,0.04,VWS V14.01,2013-07-17 16:54:00,
2013-07-17 09:59:00,76.3,21.9,0.00,SSE,160,0.0,0.0,13,0.00,,---,0.04,VWS V14.01,2013-07-17 16:59:00,
2013-07-17 10:04:00,76.5,22.0,0.00,SE,138,0.0,0.0,13,0.00,,---,0.04,VWS V14.01,2013-07-17 17:04:00,
2013-07-17 10:09:00,76.3,21.9,0.00,SE,138,0.0,0.0,13,0.00,,---,0.04,VWS V14.01,2013-07-17 17:09:00,
2013-07-17 10:14:00,76.5,22.0,0.00,South,188,0.0,0.0,13,0.00,,---,0.04,VWS V14.01,2013-07-17 17:14:00,
2013-07-17 10:19:00,76.8,22.3,0.00,SSE,165,0.0,0.0,13,0.00,,---,0.04,VWS V14.01,2013-07-17 17:19:00,
2013-07-17 10:24:00,77.2,22.6,0.00,SSW,202,0.0,0.0,13,0.00,,---,0.04,VWS V14.01,2013-07-17 17:24:00,
2013-07-17 10:29:00,77.7,23.0,0.00,SSE,168,0.0,0.0,13,0.00,,---,0.04,VWS V14.01,2013-07-17 17:29:00,
2013-07-17 10:34:00,78.3,23.4,0.00,South,179,0.0,0.0,13,0.00,,---,0.04,VWS V14.01,2013-07-17 17:34:00,
2013-07-17 10:39:00,78.3,23.4,0.00,SSE,149,0.0,0.0,13,0.00,,---,0.04,VWS V14.01,2013-07-17 17:39:00,
2013-07-17 10:44:00,78.1,23.3,0.00,SE,135,0.0,0.0,13,0.00,,---,0.04,VWS V14.01,2013-07-17 17:44:00,
2013-07-17 10:49:00,77.9,23.1,0.00,SSE,147,0.0,0.0,13,0.00,,---,0.04,VWS V14.01,2013-07-17 17:49:00,
2013-07-17 10:54:00,77.2,22.6,0.00,SSW,213,0.0,0.0,13,0.00,,---,0.04,VWS V14.01,2013-07-17 17:54:00,
2013-07-17 10:59:00,77.0,22.4,0.00,SSE,167,0.0,0.0,13,0.00,,---,0.04,VWS V14.01,2013-07-17 17:59:00,
2013-07-17 11:04:00,76.6,22.1,0.00,WSW,237,0.0,0.0,13,0.00,,---,0.04,VWS V14.01,2013-07-17 18:04:00,
2013-07-17 11:09:00,76.6,22.1,0.00,SW,221,0.0,0.0,13,0.00,,---,0.04,VWS V14.01,2013-07-17 18:09:00,
2013-07-17 11:14:00,76.6,22.1,0.00,SSE,150,0.0,0.0,13,0.00,,---,0.04,VWS V14.01,2013-07-17 18:14:00,
2013-07-17 11:19:00,76.8,22.3,0.00,SSE,147,0.0,0.0,13,0.00,,---,0.04,VWS V14.01,2013-07-17 18:19:00,
2013-07-17 11:24:00,77.2,22.6,0.00,SSE,165,0.0,0.0,13,0.00,,---,0.04,VWS V14.01,2013-07-17 18:24:00,
2013-07-17 11:29:00,77.7,23.0,0.00,SSE,151,0.0,0.0,13,0.00,,---,0.04,VWS V14.01,2013-07-17 18:29:00,
2013-07-17 11:34:00,78.1,23.3,0.00,South,171,0.0,0.0,13,0.00,,---,0.04,VWS V14.01,2013-07-17 18:34:00,
2013-07-17 11:39:00,79.2,22.2,0.00,SW,214,0.0,0.0,12,0.00,,---,0.04,VWS V14.01,2013-07-17 18:39:00,
2013-07-17 11:44:00,79.0,22.1,0.00,SE,133,0.0,0.0,12,0.00,,---,0.04,VWS V14.01,2013-07-17 18:44:00,
2013-07-17 11:49:00,78.8,22.0,0.00,South,177,0.0,0.0,12,0.00,,---,0.04,VWS V14.01,2013-07-17 18:49:00,
2013-07-17 11:54:00,78.6,23.7,0.00,South,183,0.0,0.0,13,0.00,,---,0.04,VWS V14.01,2013-07-17 18:54:00,
2013-07-17 11:59:00,79.0,22.1,0.00,South,191,0.0,0.0,12,0.00,,---,0.04,VWS V14.01,2013-07-17 18:59:00,
2013-07-17 12:04:00,79.7,22.6,0.00,SSE,158,0.0,0.0,12,0.00,,---,0.04,VWS V14.01,2013-07-17 19:04:00,
2013-07-17 12:09:00,80.6,23.4,0.00,SSE,164,0.0,0.0,12,0.00,,---,0.04,VWS V14.01,2013-07-17 19:09:00,
2013-07-17 12:14:00,80.6,23.4,0.00,South,177,0.0,0.0,12,0.00,,---,0.04,VWS V14.01,2013-07-17 19:14:00,
2013-07-17 12:19:00,80.4,23.2,0.00,SSW,193,0.0,0.0,12,0.00,,---,0.04,VWS V14.01,2013-07-17 19:19:00,
2013-07-17 12:24:00,80.4,23.2,0.00,SSW,194,0.0,0.0,12,0.00,,---,0.04,VWS V14.01,2013-07-17 19:24:00,
2013-07-17 12:29:00,80.8,23.5,0.00,WSW,241,0.0,0.0,12,0.00,,---,0.04,VWS V14.01,2013-07-17 19:29:00,
2013-07-17 12:34:00,82.2,24.6,0.00,SW,219,0.0,0.0,12,0.00,,---,0.04,VWS V14.01,2013-07-17 19:34:00,
2013-07-17 12:39:00,82.9,23.1,0.00,SSE,168,0.0,0.0,11,0.00,,---,0.04,VWS V14.01,2013-07-17 19:39:00,
2013-07-17 12:44:00,82.6,22.8,0.00,South,183,0.0,0.0,11,0.00,,---,0.04,VWS V14.01,2013-07-17 19:44:00,
2013-07-17 12:49:00,81.7,24.2,0.00,SSE,163,0.0,0.0,12,0.00,,---,0.04,VWS V14.01,2013-07-17 19:49:00,
2013-07-17 12:54:00,81.0,23.6,0.00,South,171,0.0,0.0,12,0.00,,---,0.04,VWS V14.01,2013-07-17 19:54:00,
2013-07-17 12:59:00,81.5,24.0,0.00,South,182,0.0,0.0,12,0.00,,---,0.04,VWS V14.01,2013-07-17 19:59:00,
2013-07-17 13:04:00,82.2,24.6,0.00,NNW,343,0.0,0.0,12,0.00,,---,0.04,VWS V14.01,2013-07-17 20:04:00,
2013-07-17 13:09:00,83.1,23.2,0.00,SSE,165,0.0,0.0,11,0.00,,---,0.04,VWS V14.01,2013-07-17 20:09:00,
2013-07-17 13:14:00,83.8,23.8,0.00,SSW,209,0.0,0.0,11,0.00,,---,0.04,VWS V14.01,2013-07-17 20:14:00,
2013-07-17 13:19:00,83.5,23.5,0.00,SSE,166,0.0,0.0,11,0.00,,---,0.04,VWS V14.01,2013-07-17 20:19:00,
2013-07-17 13:24:00,83.8,23.8,0.00,South,170,0.0,0.0,11,0.00,,---,0.04,VWS V14.01,2013-07-17 20:24:00,
2013-07-17 13:29:00,84.7,24.5,0.00,SSW,194,0.0,0.0,11,0.00,,---,0.04,VWS V14.01,2013-07-17 20:29:00,
2013-07-17 13:34:00,85.6,25.2,0.00,WSW,248,0.0,0.0,11,0.00,,---,0.04,VWS V14.01,2013-07-17 20:34:00,
2013-07-17 13:39:00,86.5,25.9,0.00,South,179,0.0,0.0,11,0.00,,---,0.04,VWS V14.01,2013-07-17 20:39:00,
2013-07-17 13:44:00,86.5,25.9,0.00,South,170,0.0,0.0,11,0.00,,---,0.04,VWS V14.01,2013-07-17 20:44:00,
2013-07-17 13:49:00,87.1,26.3,0.00,SW,229,0.0,0.0,11,0.00,,---,0.04,VWS V14.01,2013-07-17 20:49:00,
2013-07-17 13:54:00,87.3,26.4,0.00,SW,234,0.0,0.0,11,0.00,,---,0.04,VWS V14.01,2013-07-17 20:54:00,
2013-07-17 13:59:00,87.3,26.4,0.00,SSW,212,0.0,0.0,11,0.00,,---,0.04,VWS V14.01,2013-07-17 20:59:00,
2013-07-17 14:04:00,87.1,26.3,0.00,SSW,203,0.0,0.0,11,0.00,,---,0.04,VWS V14.01,2013-07-17 21:04:00,
2013-07-17 14:09:00,87.1,26.3,0.00,SSE,163,0.0,0.0,11,0.00,,---,0.04,VWS V14.01,2013-07-17 21:09:00,
2013-07-17 14:14:00,87.8,24.5,0.00,WSW,240,0.0,0.0,10,0.00,,---,0.04,VWS V14.01,2013-07-17 21:14:00,
2013-07-17 14:19:00,87.8,24.5,0.00,SW,224,0.0,0.0,10,0.00,,---,0.04,VWS V14.01,2013-07-17 21:19:00,
2013-07-17 14:24:00,88.2,24.8,0.00,WSW,251,0.0,0.0,10,0.00,,---,0.04,VWS V14.01,2013-07-17 21:24:00,
2013-07-17 14:29:00,88.3,24.9,0.00,WNW,284,0.0,0.0,10,0.00,,---,0.04,VWS V14.01,2013-07-17 21:29:00,
2013-07-17 14:34:00,88.7,25.2,0.00,WSW,249,0.0,0.0,10,0.00,,---,0.04,VWS V14.01,2013-07-17 21:34:00,
2013-07-17 14:39:00,88.7,25.2,0.00,South,177,0.0,0.0,10,0.00,,---,0.04,VWS V14.01,2013-07-17 21:39:00,
2013-07-17 14:44:00,88.5,25.1,0.00,South,188,0.0,0.0,10,0.00,,---,0.04,VWS V14.01,2013-07-17 21:44:00,
2013-07-17 14:49:00,88.5,25.1,0.00,SW,231,0.0,0.0,10,0.00,,---,0.04,VWS V14.01,2013-07-17 21:49:00,
2013-07-17 14:54:00,88.7,25.2,0.00,WSW,258,0.0,0.0,10,0.00,,---,0.04,VWS V14.01,2013-07-17 21:54:00,
2013-07-17 14:59:00,88.3,24.9,0.00,WSW,240,0.0,0.0,10,0.00,,---,0.04,VWS V14.01,2013-07-17 21:59:00,
2013-07-17 15:04:00,88.7,25.2,0.00,WSW,242,0.0,0.0,10,0.00,,---,0.04,VWS V14.01,2013-07-17 22:04:00,
2013-07-17 15:09:00,88.9,25.3,0.00,WSW,239,0.0,0.0,10,0.00,,---,0.04,VWS V14.01,2013-07-17 22:09:00,
2013-07-17 15:14:00,89.1,25.5,0.00,WNW,286,0.0,0.0,10,0.00,,---,0.04,VWS V14.01,2013-07-17 22:14:00,
2013-07-17 15:19:00,89.4,25.8,0.00,WSW,254,6.3,10.1,10,0.00,,---,0.04,VWS V14.01,2013-07-17 22:19:00,
2013-07-17 15:24:00,89.2,25.6,0.00,WNW,287,4.0,4.9,10,0.00,,---,0.04,VWS V14.01,2013-07-17 22:24:00,
2013-07-17 15:29:00,89.2,25.6,0.00,WSW,257,5.8,8.7,10,0.00,,---,0.04,VWS V14.01,2013-07-17 22:29:00,
2013-07-17 15:34:00,89.2,25.6,0.00,WSW,240,8.1,8.1,10,0.00,,---,0.04,VWS V14.01,2013-07-17 22:34:00,
2013-07-17 15:39:00,89.2,25.6,0.00,WSW,242,5.8,5.8,10,0.00,,---,0.04,VWS V14.01,2013-07-17 22:39:00,
2013-07-17 15:44:00,89.6,25.9,0.00,WSW,242,5.8,7.6,10,0.00,,---,0.04,VWS V14.01,2013-07-17 22:44:00,
2013-07-17 15:49:00,88.3,24.9,0.00,SW,232,5.8,5.8,10,0.00,,---,0.04,VWS V14.01,2013-07-17 22:49:00,
2013-07-17 15:54:00,87.3,26.4,0.00,WSW,239,2.7,2.7,11,0.00,,---,0.04,VWS V14.01,2013-07-17 22:54:00,
2013-07-17 15:59:00,86.7,26.0,0.00,WSW,244,4.0,5.4,11,0.00,,---,0.04,VWS V14.01,2013-07-17 22:59:00,
2013-07-17 16:04:00,87.8,24.5,0.00,SW,233,4.9,4.9,10,0.00,,---,0.04,VWS V14.01,2013-07-17 23:04:00,
2013-07-17 16:09:00,89.1,25.5,0.00,SSW,197,4.0,6.7,10,0.00,,---,0.04,VWS V14.01,2013-07-17 23:09:00,
2013-07-17 16:14:00,89.2,25.6,0.00,WSW,243,3.6,3.6,10,0.00,,---,0.04,VWS V14.01,2013-07-17 23:14:00,
2013-07-17 16:19:00,89.2,25.6,0.00,South,178,11.0,11.0,10,0.00,,---,0.04,VWS V14.01,2013-07-17 23:19:00,
2013-07-17 16:24:00,88.9,25.3,0.00,WNW,285,5.4,7.6,10,0.00,,---,0.04,VWS V14.01,2013-07-17 23:24:00,
2013-07-17 16:29:00,89.2,25.6,0.00,WSW,248,8.7,8.7,10,0.00,,---,0.04,VWS V14.01,2013-07-17 23:29:00,
2013-07-17 16:34:00,89.1,25.5,0.00,SW,219,5.4,6.7,10,0.00,,---,0.04,VWS V14.01,2013-07-17 23:34:00,
2013-07-17 16:39:00,89.2,25.6,0.00,WSW,254,2.7,4.0,10,0.00,,---,0.04,VWS V14.01,2013-07-17 23:39:00,
2013-07-17 16:44:00,89.4,25.8,0.00,WNW,288,4.9,4.9,10,0.00,,---,0.04,VWS V14.01,2013-07-17 23:44:00,
2013-07-17 16:49:00,89.6,25.9,0.00,NW,316,3.1,5.8,10,0.00,,---,0.04,VWS V14.01,2013-07-17 23:49:00,
2013-07-17 16:54:00,89.8,26.0,0.00,West,262,3.1,4.9,10,0.00,,---,0.04,VWS V14.01,2013-07-17 23:54:00,
2013-07-17 16:59:00,89.6,25.9,0.00,West,267,6.3,6.3,10,0.00,,---,0.04,VWS V14.01,2013-07-17 23:59:00,
2013-07-17 17:04:00,89.2,25.6,0.00,North,353,5.8,5.8,10,0.00,,---,0.04,VWS V14.01,2013-07-18 00:04:00,
2013-07-17 17:09:00,89.2,25.6,0.00,West,272,3.1,3.1,10,0.00,,---,0.04,VWS V14.01,2013-07-18 00:09:00,
2013-07-17 17:14:00,89.6,25.9,0.00,WSW,253,0.0,0.0,10,0.00,,---,0.04,VWS V14.01,2013-07-18 00:14:00,
2013-07-17 17:19:00,89.4,25.8,0.00,NW,310,2.7,5.4,10,0.00,,---,0.04,VWS V14.01,2013-07-18 00:19:00,
2013-07-17 17:24:00,88.9,25.3,0.00,SW,218,4.0,4.0,10,0.00,,---,0.04,VWS V14.01,2013-07-18 00:24:00,
2013-07-17 17:29:00,89.2,25.6,0.00,WSW,254,0.0,3.6,10,0.00,,---,0.04,VWS V14.01,2013-07-18 00:29:00,
2013-07-17 17:34:00,89.2,25.6,0.00,WSW,254,5.8,5.8,10,0.00,,---,0.04,VWS V14.01,2013-07-18 00:34:00,
2013-07-17 17:39:00,88.7,25.2,0.00,West,263,6.3,6.7,10,0.00,,---,0.04,VWS V14.01,2013-07-18 00:39:00,
2013-07-17 17:44:00,87.6,26.7,0.00,West,262,3.1,6.3,11,0.00,,---,0.04,VWS V14.01,2013-07-18 00:44:00,
2013-07-17 17:49:00,86.9,26.1,0.00,South,183,3.1,7.6,11,0.00,,---,0.04,VWS V14.01,2013-07-18 00:49:00,
2013-07-17 17:54:00,86.7,26.0,0.00,West,277,0.0,0.0,11,0.00,,---,0.04,VWS V14.01,2013-07-18 00:54:00,
2013-07-17 17:59:00,87.1,26.3,0.00,WSW,244,0.0,0.0,11,0.00,,---,0.04,VWS V14.01,2013-07-18 00:59:00,
2013-07-17 18:04:00,87.1,26.3,0.00,NW,310,0.0,3.6,11,0.00,,---,0.04,VWS V14.01,2013-07-18 01:04:00,
2013-07-17 18:09:00,86.5,25.9,0.00,SW,224,0.0,0.0,11,0.00,,---,0.04,VWS V14.01,2013-07-18 01:09:00,
2013-07-17 18:14:00,86.7,26.0,0.00,West,259,3.1,3.6,11,0.00,,---,0.04,VWS V14.01,2013-07-18 01:14:00,
2013-07-17 18:19:00,87.3,26.4,0.00,SW,236,5.8,5.8,11,0.00,,---,0.04,VWS V14.01,2013-07-18 01:19:00,
2013-07-17 18:24:00,87.6,26.7,0.00,SW,215,2.2,3.6,11,0.00,,---,0.04,VWS V14.01,2013-07-18 01:24:00,
2013-07-17 18:29:00,87.6,26.7,0.00,SW,236,0.0,0.0,11,0.00,,---,0.04,VWS V14.01,2013-07-18 01:29:00,
2013-07-17 18:34:00,87.6,26.7,0.00,West,266,0.0,0.0,11,0.00,,---,0.04,VWS V14.01,2013-07-18 01:34:00,
2013-07-17 18:39:00,87.6,26.7,0.00,WSW,246,0.0,0.0,11,0.00,,---,0.04,VWS V14.01,2013-07-18 01:39:00,
2013-07-17 18:44:00,87.1,26.3,0.00,West,278,0.0,0.0,11,0.00,,---,0.04,VWS V14.01,2013-07-18 01:44:00,
2013-07-17 18:49:00,86.5,25.9,0.00,WSW,251,0.0,0.0,11,0.00,,---,0.04,VWS V14.01,2013-07-18 01:49:00,
2013-07-17 18:54:00,86.2,25.6,0.00,WSW,240,0.0,0.0,11,0.00,,---,0.04,VWS V14.01,2013-07-18 01:54:00,
2013-07-17 18:59:00,85.6,25.2,0.00,WSW,251,0.0,0.0,11,0.00,,---,0.04,VWS V14.01,2013-07-18 01:59:00,
2013-07-17 19:04:00,85.1,24.7,0.00,WSW,250,0.0,0.0,11,0.00,,---,0.04,VWS V14.01,2013-07-18 02:04:00,
2013-07-17 19:09:00,85.1,24.7,0.00,WSW,251,0.0,0.0,11,0.00,,---,0.04,VWS V14.01,2013-07-18 02:09:00,
2013-07-17 19:14:00,85.1,24.7,0.00,SW,223,0.0,0.0,11,0.00,,---,0.04,VWS V14.01,2013-07-18 02:14:00,
2013-07-17 19:19:00,85.3,24.9,0.00,WSW,257,0.0,0.0,11,0.00,,---,0.04,VWS V14.01,2013-07-18 02:19:00,
2013-07-17 19:24:00,85.3,24.9,0.00,West,260,0.0,0.0,11,0.00,,---,0.04,VWS V14.01,2013-07-18 02:24:00,
2013-07-17 19:29:00,85.3,24.9,0.00,WSW,245,0.0,0.0,11,0.00,,---,0.04,VWS V14.01,2013-07-18 02:29:00,
2013-07-17 19:34:00,85.1,24.7,0.00,West,261,0.0,0.0,11,0.00,,---,0.04,VWS V14.01,2013-07-18 02:34:00,
2013-07-17 19:39:00,84.9,24.6,0.00,WSW,257,0.0,0.0,11,0.00,,---,0.04,VWS V14.01,2013-07-18 02:39:00,
2013-07-17 19:44:00,84.6,24.3,0.00,WSW,246,0.0,0.0,11,0.00,,---,0.04,VWS V14.01,2013-07-18 02:44:00,
2013-07-17 19:49:00,84.2,24.0,0.00,SW,235,0.0,0.0,11,0.00,,---,0.04,VWS V14.01,2013-07-18 02:49:00,
2013-07-17 19:54:00,84.0,23.9,0.00,NW,312,0.0,0.0,11,0.00,,---,0.04,VWS V14.01,2013-07-18 02:54:00,
2013-07-17 19:59:00,83.8,23.8,0.00,West,272,0.0,0.0,11,0.00,,---,0.04,VWS V14.01,2013-07-18 02:59:00,
2013-07-17 20:04:00,83.5,23.5,0.00,West,274,0.0,0.0,11,0.00,,---,0.04,VWS V14.01,2013-07-18 03:04:00,
2013-07-17 20:09:00,83.1,23.2,0.00,WSW,244,0.0,0.0,11,0.00,,---,0.04,VWS V14.01,2013-07-18 03:09:00,
2013-07-17 20:14:00,82.8,23.0,0.00,West,264,0.0,0.0,11,0.00,,---,0.04,VWS V14.01,2013-07-18 03:14:00,
2013-07-17 20:19:00,82.6,22.8,0.00,WSW,255,0.0,0.0,11,0.00,,---,0.04,VWS V14.01,2013-07-18 03:19:00,
2013-07-17 20:24:00,82.0,24.5,0.00,West,278,0.0,0.0,12,0.00,,---,0.04,VWS V14.01,2013-07-18 03:24:00,
2013-07-17 20:29:00,81.9,24.3,0.00,West,259,0.0,0.0,12,0.00,,---,0.04,VWS V14.01,2013-07-18 03:29:00,
2013-07-17 20:34:00,81.5,24.0,0.00,WSW,258,0.0,0.0,12,0.00,,---,0.04,VWS V14.01,2013-07-18 03:34:00,
2013-07-17 20:39:00,81.1,23.8,0.00,WSW,258,0.0,0.0,12,0.00,,---,0.04,VWS V14.01,2013-07-18 03:39:00,
2013-07-17 20:44:00,80.8,23.5,0.00,SW,232,0.0,0.0,12,0.00,,---,0.04,VWS V14.01,2013-07-18 03:44:00,
2013-07-17 20:49:00,80.4,23.2,0.00,SW,232,0.0,0.0,12,0.00,,---,0.04,VWS V14.01,2013-07-18 03:49:00,
2013-07-17 20:53:00,79.9,22.8,0.00,SW,232,0.0,0.0,12,0.00,,---,0.04,VWS V14.01,2013-07-18 03:53:00,
2013-07-17 20:58:00,79.3,22.4,0.00,SW,232,0.0,0.0,12,0.00,,---,0.04,VWS V14.01,2013-07-18 03:58:00,
2013-07-17 21:01:00,79.2,22.2,0.00,SW,232,0.0,0.0,12,0.00,,---,0.04,VWS V14.01,2013-07-18 04:01:00,
2013-07-17 21:06:00,78.6,23.7,0.00,SW,232,0.0,0.0,13,0.00,,---,0.04,VWS V14.01,2013-07-18 04:06:00,
2013-07-17 21:11:00,78.1,23.3,0.00,SW,232,0.0,0.0,13,0.00,,---,0.04,VWS V14.01,2013-07-18 04:11:00,
2013-07-17 21:16:00,77.7,23.0,0.00,SW,232,0.0,0.0,13,0.00,,---,0.04,VWS V14.01,2013-07-18 04:16:00,
2013-07-17 21:21:00,77.5,22.9,0.00,SW,232,0.0,0.0,13,0.00,,---,0.04,VWS V14.01,2013-07-18 04:21:00,
2013-07-17 21:26:00,77.5,22.9,0.00,SW,232,0.0,0.0,13,0.00,,---,0.04,VWS V14.01,2013-07-18 04:26:00,
2013-07-17 21:31:00,77.4,22.7,0.00,SW,232,0.0,0.0,13,0.00,,---,0.04,VWS V14.01,2013-07-18 04:31:00,
2013-07-17 21:36:00,77.2,22.6,0.00,SW,232,0.0,0.0,13,0.00,,---,0.04,VWS V14.01,2013-07-18 04:36:00,
2013-07-17 21:41:00,77.0,22.4,0.00,SW,232,0.0,0.0,13,0.00,,---,0.04,VWS V14.01,2013-07-18 04:41:00,
2013-07-17 21:46:00,76.6,22.1,0.00,SW,232,0.0,0.0,13,0.00,,---,0.04,VWS V14.01,2013-07-18 04:46:00,
2013-07-17 21:51:00,76.3,21.9,0.00,SW,232,0.0,0.0,13,0.00,,---,0.04,VWS V14.01,2013-07-18 04:51:00,
2013-07-17 21:56:00,76.1,21.7,0.00,SW,232,0.0,0.0,13,0.00,,---,0.04,VWS V14.01,2013-07-18 04:56:00,
2013-07-17 22:01:00,75.9,21.6,0.00,SW,232,0.0,0.0,13,0.00,,---,0.04,VWS V14.01,2013-07-18 05:01:00,
2013-07-17 22:06:00,75.7,21.5,0.00,SW,232,0.0,0.0,13,0.00,,---,0.04,VWS V14.01,2013-07-18 05:06:00,
2013-07-17 22:11:00,75.4,21.2,0.00,SW,232,0.0,0.0,13,0.00,,---,0.04,VWS V14.01,2013-07-18 05:11:00,
2013-07-17 22:16:00,75.0,20.9,0.00,SW,232,0.0,0.0,13,0.00,,---,0.04,VWS V14.01,2013-07-18 05:16:00,
2013-07-17 22:21:00,74.8,20.7,0.00,SW,232,0.0,0.0,13,0.00,,---,0.04,VWS V14.01,2013-07-18 05:21:00,
2013-07-17 22:26:00,74.7,20.6,0.00,SW,232,0.0,0.0,13,0.00,,---,0.04,VWS V14.01,2013-07-18 05:26:00,
2013-07-17 22:31:00,74.5,20.5,0.00,SW,232,0.0,0.0,13,0.00,,---,0.04,VWS V14.01,2013-07-18 05:31:00,
2013-07-17 22:36:00,74.7,20.6,0.00,SW,232,0.0,0.0,13,0.00,,---,0.04,VWS V14.01,2013-07-18 05:36:00,
2013-07-17 22:41:00,75.0,20.9,0.00,SW,232,0.0,0.0,13,0.00,,---,0.04,VWS V14.01,2013-07-18 05:41:00,
2013-07-17 22:46:00,75.2,21.0,0.00,SW,232,0.0,0.0,13,0.00,,---,0.04,VWS V14.01,2013-07-18 05:46:00,
2013-07-17 22:51:00,75.4,21.2,0.00,SW,232,0.0,0.0,13,0.00,,---,0.04,VWS V14.01,2013-07-18 05:51:00,
2013-07-17 22:56:00,75.4,21.2,0.00,SW,232,0.0,0.0,13,0.00,,---,0.04,VWS V14.01,2013-07-18 05:56:00,
2013-07-17 23:01:00,75.4,21.2,0.00,SW,232,0.0,0.0,13,0.00,,---,0.04,VWS V14.01,2013-07-18 06:01:00,
2013-07-17 23:06:00,75.0,20.9,0.00,SW,232,0.0,0.0,13,0.00,,---,0.04,VWS V14.01,2013-07-18 06:06:00,
2013-07-17 23:11:00,75.2,21.0,0.00,SW,232,0.0,0.0,13,0.00,,---,0.04,VWS V14.01,2013-07-18 06:11:00,
2013-07-17 23:16:00,74.1,20.2,0.00,NW,326,0.0,0.0,13,0.00,,---,0.04,VWS V14.01,2013-07-18 06:16:00,
2013-07-17 23:21:00,72.7,20.8,0.00,WNW,284,0.0,0.0,14,0.00,,---,0.04,VWS V14.01,2013-07-18 06:21:00,
2013-07-17 23:26:00,71.6,19.9,0.00,WNW,289,0.0,0.0,14,0.00,,---,0.04,VWS V14.01,2013-07-18 06:26:00,
2013-07-17 23:31:00,71.1,19.5,0.00,WNW,298,0.0,0.0,14,0.00,,---,0.04,VWS V14.01,2013-07-18 06:31:00,
2013-07-17 23:36:00,70.9,19.4,0.00,SW,221,0.0,0.0,14,0.00,,---,0.04,VWS V14.01,2013-07-18 06:36:00,
2013-07-17 23:41:00,70.9,19.4,0.00,SW,234,0.0,0.0,14,0.00,,---,0.04,VWS V14.01,2013-07-18 06:41:00,
2013-07-17 23:46:00,70.3,18.9,0.00,SW,234,0.0,0.0,14,0.00,,---,0.04,VWS V14.01,2013-07-18 06:46:00,
2013-07-17 23:51:00,70.5,19.1,0.00,WSW,246,0.0,0.0,14,0.00,,---,0.04,VWS V14.01,2013-07-18 06:51:00,
2013-07-17 23:56:00,71.2,19.6,0.00,WSW,240,0.0,0.0,14,0.00,,---,0.04,VWS V14.01,2013-07-18 06:56:00,